Pasco, WA

5:43 PM PDT on April 23, 2017 (GMT -0700)
Tri-Cities

Weather History for KPSC - April, 2014

Change the Weather History Date:

Wednesday, April 23, 2014

  Actual Average Record
Temperature  
Mean Temperature 52 °F 54 °F  
Max Temperature 57 °F 69 °F 91 °F (2012)
Min Temperature 47 °F 39 °F 27 °F (2011)
Degree Days  
Heating Degree Days 13 11  
Month to date heating degree days 246 293  
Since 1 July heating degree days 5034 4754  
Cooling Degree Days 0 0  
Month to date cooling degree days 0 0  
Year to date cooling degree days 0 0  
Moisture  
Dew Point 40 °F    
Average Humidity 65    
Maximum Humidity 83    
Minimum Humidity 47    
Precipitation  
Precipitation 0.01 in 0.02 in 0.42 in (1974)
Month to date precipitation 0.28 0.52  
Year to date precipitation 2.02 3.39  
Snow  
Snow 0.00 in - - ()
Snow Depth 0.00 in    
Sea Level Pressure  
Sea Level Pressure 29.89 in    
Wind  
Wind Speed 11 mph (South)    
Max Wind Speed 28 mph    
Max Gust Speed 34 mph    
Visibility 10 miles    
Events Rain    
T = Trace of Precipitation, MM = Missing Value Source: NWS Daily Summary

Daily Weather History Graph

Daily Weather History Graph

Search for Another Location

Airport or City:

Trip Planner

Search our weather history database for the weather conditions in past years. The results will help you decide how hot, cold, wet, or windy it might be!

Date:

Astronomy

Apr. 23, 2014 Rise Set
Actual Time 5:55 AM PDT 7:54 PM PDT
Civil Twilight 5:23 AM PDT 8:27 PM PDT
Nautical Twilight 4:43 AM PDT 9:07 PM PDT
Astronomical Twilight 3:59 AM PDT 9:51 PM PDT
Moon 2:51 AM PDT (4/23) 1:49 PM PDT (4/23)
Length of Visible Light 15h 03m
Length of Day
13h 59m
Waning Crescent, 34% of the Moon is Illuminated
Apr 23
Waning Crescent
Apr 28
New
May 6
First Quarter
May 14
Full
May 21
Last Quarter

Hourly Weather History & Observations

Time (PDT) Temp. Dew Point Humidity Pressure Visibility Wind Dir Wind Speed Gust Speed Precip Events Conditions
12:53 AM 48.0 °F 35.1 °F 61% 29.92 in 10.0 mi SW 13.8 mph - N/A   Scattered Clouds
1:53 AM 46.9 °F 36.0 °F 66% 29.92 in 10.0 mi SSW 9.2 mph - N/A   Overcast
2:53 AM 46.9 °F 36.0 °F 66% 29.91 in 10.0 mi South 6.9 mph - N/A   Overcast
3:53 AM 48.0 °F 36.0 °F 63% 29.91 in 10.0 mi SSW 8.1 mph - N/A   Overcast
4:53 AM 46.9 °F 36.0 °F 66% 29.91 in 10.0 mi South 10.4 mph - N/A   Mostly Cloudy
5:53 AM 48.0 °F 36.0 °F 63% 29.91 in 10.0 mi WSW 10.4 mph - N/A   Mostly Cloudy
6:53 AM 48.0 °F 36.0 °F 63% 29.92 in 10.0 mi WSW 10.4 mph - N/A   Mostly Cloudy
7:53 AM 48.9 °F 37.0 °F 64% 29.93 in 10.0 mi SW 20.7 mph 27.6 mph N/A   Overcast
8:53 AM 53.1 °F 37.0 °F 55% 29.93 in 10.0 mi SW 17.3 mph - N/A   Scattered Clouds
10:53 AM 55.0 °F 36.0 °F 49% 29.93 in 10.0 mi WSW 21.9 mph - N/A   Scattered Clouds
11:53 AM 55.0 °F 36.0 °F 49% 29.94 in 10.0 mi SW 18.4 mph - N/A   Overcast
1:53 PM 53.1 °F 39.9 °F 61% 29.94 in 10.0 mi West 4.6 mph - 0.00 in Rain Light Rain
2:53 PM 54.0 °F 39.9 °F 59% 29.93 in 10.0 mi Variable 3.5 mph - 0.00 in Rain Light Rain
3:53 PM 55.0 °F 44.1 °F 67% 29.90 in 10.0 mi ENE 8.1 mph - 0.01 in   Partly Cloudy
4:53 PM 55.0 °F 41.0 °F 59% 29.88 in 10.0 mi ESE 10.4 mph - N/A   Mostly Cloudy
5:53 PM 55.9 °F 43.0 °F 62% 29.87 in 10.0 mi ESE 9.2 mph - 0.00 in   Overcast
6:53 PM 55.9 °F 44.1 °F 64% 29.85 in 10.0 mi ESE 4.6 mph - 0.00 in   Overcast
7:53 PM 55.0 °F 46.0 °F 72% 29.84 in 10.0 mi SE 5.8 mph - N/A   Overcast
8:53 PM 53.1 °F 48.0 °F 83% 29.83 in 10.0 mi SE 8.1 mph - 0.00 in Rain Light Rain
9:53 PM 53.1 °F 48.0 °F 83% 29.83 in 10.0 mi SSE 5.8 mph - 0.00 in Rain Light Rain
10:53 PM 53.1 °F 48.0 °F 83% 29.82 in 10.0 mi SSE 5.8 mph - 0.00 in   Overcast
11:53 PM 52.0 °F 46.9 °F 83% 29.80 in 10.0 mi ESE 10.4 mph - N/A   Overcast